KB3KAV Weather Reports


Display with metric or nautical units.
time (UTC)temp
F
wind
direction
speed
MPH
gust
MPH
rain 1hr
in
rain 24hr
in
rain mn
in
humidity
%
barometer
mb
20260905211940 77 106 2.0 3.0 0.00 0.00 0.00 60 1041.1
20260905210938 76 120 2.0 3.0 0.00 0.00 0.00 60 1041.1
20260905205938 77 99 0.0 0.0 0.00 0.00 0.00 60 1041.0
20260905204937 75 80 1.0 1.0 0.00 0.00 0.00 64 1040.9
20260905203932 75 37 2.0 3.0 0.00 0.00 0.00 64 1041.0
20260905202929 75 140 4.0 6.0 0.00 0.00 0.00 62 1040.9
20260905201926 76 96 1.0 2.0 0.00 0.00 0.00 60 1041.1
20260905200921 78 132 1.0 2.0 0.00 0.00 0.00 53 1040.9
20260905195921 77 113 1.0 1.0 0.00 0.00 0.00 58 1041.0
20260905194918 74 101 5.0 6.0 0.00 0.00 0.00 63 1040.9
20260905193917 74 109 1.0 1.0 0.00 0.00 0.00 66 1041.0
20260905192913 76 89 2.0 3.0 0.00 0.00 0.00 60 1040.6
20260905191908 79 93 2.0 2.0 0.00 0.00 0.00 56 1040.8
20260905190908 76 98 0.0 1.0 0.00 0.00 0.00 57 1040.9
20260905185904 78 7 1.0 2.0 0.00 0.00 0.00 55 1041.1
20260905184904 76 146 2.0 2.0 0.00 0.00 0.00 60 1041.2
20260905183903 76 103 1.0 1.0 0.00 0.00 0.00 59 1041.2
20260905182859 76 95 0.0 0.0 0.00 0.00 0.00 57 1041.4
20260905181854 76 143 3.0 3.0 0.00 0.00 0.00 56 1041.6
20260905180853 77 76 2.0 3.0 0.00 0.00 0.00 57 1041.1
20260905175849 75 97 1.0 1.0 0.00 0.00 0.00 62 1041.1
20260905174850 74 125 4.0 5.0 0.00 0.00 0.00 63 1041.3
20260905173847 75 115 2.0 3.0 0.00 0.00 0.00 62 1041.6
20260905172843 73 86 1.0 1.0 0.00 0.00 0.00 62 1041.8
20260905171843 74 90 3.0 3.0 0.00 0.00 0.00 60 1041.5
20260905170842 75 158 2.0 3.0 0.00 0.00 0.00 64 1041.9
20260905165836 74 105 0.0 0.0 0.00 0.00 0.00 63 1041.9
20260905164832 74 204 3.0 3.0 0.00 0.00 0.00 62 1041.9
20260905163828 75 273 3.0 5.0 0.00 0.00 0.00 62 1042.0
20260905162826 74 125 3.0 3.0 0.00 0.00 0.00 62 1041.9
20260905161826 73 78 4.0 6.0 0.00 0.00 0.00 64 1042.3
20260905160824 74 96 3.0 5.0 0.00 0.00 0.00 65 1042.4
20260905155819 73 95 1.0 2.0 0.00 0.00 0.00 66 1042.5
20260905154819 71 110 2.0 2.0 0.00 0.00 0.00 70 1042.5
20260905153815 71 115 3.0 5.0 0.00 0.00 0.00 69 1042.5
20260905152811 71 156 7.0 9.0 0.00 0.00 0.00 70 1042.5
20260905151812 71 197 3.0 3.0 0.00 0.00 0.00 71 1042.2
20260905150807 71 147 5.0 6.0 0.00 0.00 0.00 71 1042.2
20260905145804 71 149 3.0 3.0 0.00 0.00 0.00 70 1041.9
20260905144803 72 177 5.0 7.0 0.00 0.00 0.00 70 1042.1
20260905143803 72 84 1.0 1.0 0.00 0.00 0.00 69 1042.2
20260905142803 72 138 8.0 10.0 0.00 0.00 0.00 70 1042.2
20260905141759 72 103 1.0 1.0 0.00 0.00 0.00 71 1042.1
20260905140756 72 98 1.0 1.0 0.00 0.00 0.00 71 1042.1
20260905135755 72 127 2.0 3.0 0.00 0.00 0.00 72 1042.4
20260905134751 71 152 3.0 3.0 0.00 0.00 0.00 73 1042.1
20260905133751 71 150 3.0 3.0 0.00 0.00 0.00 78 1042.1
20260905132745 70 117 1.0 2.0 0.00 0.00 0.00 76 1042.0
20260905131741 69 128 1.0 1.0 0.00 0.00 0.00 82 1042.2
20260905130737 68 93 2.0 2.0 0.00 0.00 0.00 84 1042.0
20260905125738 68 119 0.0 1.0 0.00 0.00 0.00 86 1042.0
20260905124735 69 118 0.0 1.0 0.00 0.00 0.00 82 1042.1
20260905123731 68 113 1.0 1.0 0.00 0.00 0.00 86 1042.1
20260905122728 68 113 1.0 1.0 0.00 0.00 0.00 84 1042.3
20260905121723 66 123 1.0 1.0 0.00 0.00 0.00 88 1042.2
20260905120718 66 104 1.0 1.0 0.00 0.00 0.00 87 1042.2
20260905115713 64 94 0.0 0.0 0.00 0.00 0.00 91 1042.4
20260905114708 66 103 1.0 1.0 0.00 0.00 0.00 88 1042.2
20260905113706 63 95 0.0 0.0 0.00 0.00 0.00 92 1041.9
20260905112701 60 94 0.0 0.0 0.00 0.00 0.00 95 1042.0
20260905111657 59 82 0.0 0.0 0.00 0.00 0.00 95 1041.8
20260905110656 59 82 0.0 0.0 0.00 0.00 0.00 95 1041.8
20260905105652 59 81 0.0 0.0 0.00 0.00 0.00 95 1041.9
20260905104652 59 82 0.0 0.0 0.00 0.00 0.00 95 1041.6
20260905103649 59 84 0.0 0.0 0.00 0.00 0.00 95 1041.7
20260905102646 60 84 0.0 0.0 0.00 0.00 0.00 95 1041.3
20260905101647 60 89 0.0 0.0 0.00 0.00 0.00 95 1041.3
20260905100642 60 89 0.0 0.0 0.00 0.00 0.00 95 1041.2
20260905095642 60 83 0.0 0.0 0.00 0.00 0.00 95 1041.2
20260905094638 60 83 0.0 0.0 0.00 0.00 0.00 95 1041.1
20260905093638 61 88 0.0 0.0 0.00 0.00 0.00 95 1041.0
20260905092634 61 88 0.0 0.0 0.00 0.00 0.00 95 1041.0
20260905091629 62 88 0.0 0.0 0.00 0.00 0.00 95 1041.1
20260905090624 62 89 0.0 0.0 0.00 0.00 0.00 95 1041.1
20260905085618 63 89 0.0 0.0 0.00 0.00 0.00 95 1041.1
20260905084613 63 89 0.0 0.0 0.00 0.00 0.00 95 1040.9
20260905083608 64 90 0.0 0.0 0.00 0.00 0.00 95 1040.7
20260905082606 64 90 0.0 0.0 0.00 0.00 0.00 95 1041.2
20260905081601 64 90 0.0 0.0 0.00 0.00 0.00 95 1041.1
20260905080556 64 89 0.0 0.0 0.00 0.00 0.00 95 1041.5
20260905075550 65 90 0.0 0.0 0.00 0.00 0.00 95 1041.2
20260905074549 65 90 0.0 0.0 0.00 0.00 0.00 95 1041.4
20260905073547 65 90 0.0 0.0 0.00 0.00 0.00 95 1041.0
20260905072547 65 90 0.0 0.0 0.00 0.00 0.00 95 1041.2
20260905071545 66 91 0.0 0.0 0.00 0.00 0.00 95 1041.3
20260905070541 66 91 0.0 0.0 0.00 0.00 0.00 95 1041.2
20260905065540 66 95 0.0 0.0 0.00 0.00 0.00 95 1041.3
20260905064535 66 96 0.0 0.0 0.00 0.00 0.00 95 1041.3
20260905063535 66 86 0.0 0.0 0.00 0.00 0.00 95 1041.5
20260905062532 66 86 0.0 0.0 0.00 0.00 0.00 95 1041.6
20260905061528 66 86 0.0 0.0 0.00 0.00 0.00 95 1041.5
20260905060523 66 86 0.0 0.0 0.00 0.00 0.00 95 1041.8
20260905055523 66 86 0.0 0.0 0.00 0.00 0.00 95 1041.6
20260905054520 66 86 0.0 0.0 0.00 0.00 0.00 95 1041.8
20260905053515 66 86 0.0 0.0 0.00 0.00 0.00 95 1041.9
20260905052510 66 87 0.0 1.0 0.00 0.00 0.00 95 1042.2
20260905051505 66 87 0.0 0.0 0.00 0.00 0.00 95 1042.3
20260905050504 66 86 0.0 1.0 0.00 0.00 0.00 95 1042.1
20260905045501 67 87 0.0 0.0 0.00 0.00 0.00 95 1042.1
20260905044456 66 81 1.0 1.0 0.00 0.00 0.00 95 1042.3
20260905043455 67 85 0.0 0.0 0.00 0.00 0.00 95 1042.2
20260905042456 67 85 0.0 0.0 0.00 0.00 0.00 95 1042.1
20260905041453 67 81 0.0 0.0 0.00 0.00 0.00 95 1042.2
20260905040453 67 91 0.0 0.0 0.00 0.00 0.00 95 1042.0
20260905035454 67 86 0.0 0.0 0.00 0.00 0.00 95 1042.0
20260905034452 67 93 0.0 0.0 0.00 0.00 0.00 95 1042.1
20260905033451 67 92 0.0 0.0 0.00 0.00 0.00 95 1041.7
20260905032447 68 91 0.0 0.0 0.00 0.00 0.00 95 1041.7
20260905031444 68 91 0.0 0.0 0.00 0.00 0.00 95 1041.8
20260905030440 68 91 0.0 0.0 0.00 0.00 0.00 95 1041.7
20260905025440 68 91 0.0 0.0 0.00 0.00 0.00 95 1041.8
20260905024437 68 91 0.0 0.0 0.00 0.00 0.00 95 1041.7
20260905023433 68 91 0.0 0.0 0.00 0.00 0.00 95 1041.8
20260905022428 68 91 0.0 0.0 0.00 0.00 0.00 95 1041.7
20260905021423 68 91 0.0 0.0 0.00 0.00 0.00 95 1041.9
20260905020424 68 92 0.0 0.0 0.00 0.00 0.00 95 1041.8
20260905015422 68 92 0.0 0.0 0.00 0.00 0.00 95 1041.8
20260905014417 68 92 0.0 0.0 0.00 0.00 0.00 95 1041.8
20260905013414 68 92 0.0 0.0 0.00 0.00 0.00 95 1041.8
20260905012410 68 92 0.0 0.0 0.00 0.00 0.00 95 1041.8
20260905011408 68 93 0.0 0.0 0.00 0.00 0.00 95 1041.5
20260905010404 68 87 0.0 0.0 0.00 0.00 0.00 95 1041.8
20260905005402 68 86 1.0 1.0 0.00 0.00 0.00 95 1041.6
20260905004357 69 103 0.0 0.0 0.00 0.00 0.00 95 1041.8
20260905003354 69 103 0.0 0.0 0.00 0.00 0.00 95 1041.9
20260905002349 70 91 1.0 1.0 0.00 0.00 0.00 95 1041.7
20260905001344 70 90 1.0 1.0 0.00 0.00 0.00 94 1041.5
20260905000341 70 92 0.0 0.0 0.00 0.00 0.00 94 1041.4
20260904235337 71 93 0.0 0.0 0.00 0.00 0.00 93 1041.2
20260904234332 71 95 0.0 0.0 0.00 0.00 0.00 94 1041.2
20260904233330 71 95 0.0 1.0 0.00 0.00 0.00 94 1041.2
20260904232328 72 96 0.0 0.0 0.00 0.00 0.00 93 1041.1
20260904231324 73 96 0.0 0.0 0.00 0.00 0.00 92 1041.0
20260904230324 73 95 0.0 0.0 0.00 0.00 0.00 91 1040.8
20260904225324 73 95 0.0 0.0 0.00 0.00 0.00 91 1041.3
20260904224319 73 93 0.0 0.0 0.00 0.00 0.00 89 1041.1
20260904223318 74 91 1.0 1.0 0.00 0.00 0.00 90 1041.2
20260904222315 75 108 0.0 0.0 0.00 0.00 0.00 87 1041.1
20260904221310 76 105 3.0 3.0 0.00 0.00 0.00 85 1041.2
20260904220310 76 92 0.0 0.0 0.00 0.00 0.00 83 1041.2
20260904215306 76 92 0.0 0.0 0.00 0.00 0.00 84 1041.3
20260904214304 76 92 0.0 1.0 0.00 0.00 0.00 82 1041.4
20260904213303 78 90 1.0 2.0 0.00 0.00 0.00 79 1041.3
20260904212259 79 84 1.0 1.0 0.00 0.00 0.00 74 1041.2